Retour au catalogue

STARLINK-30277

ActifCommunicationsVLEO
NORAD 57645·PAYLOAD·🇺🇸 United States

Lancé Aug 17, 2023 depuis Cape Canaveral Space Force Station

Loading…

Prochains Passages (prochaines 24 heures)

TLE

FraisSource: CelesTrak SupGP

Époque: Sep 14, 2026, 21:41 UTC

1 57645C 23122P   26257.90395833 -.00073690  00000+0 -26688-2 0  2574
2 57645  43.0031 321.8191 0001809 266.1057 141.4751 15.27617897    17

Suivez STARLINK-30277 en temps réel avec AllMySat

Download on the App Store